Tracking 30923 objects as of 1-Jul-2025
HD Live streaming from Space Station
objects crossing your sky now

STARLINK-6331

Track STARLINK-6331 now!
10-day predictions
STARLINK-6331 is classified as:


NORAD ID: 57351
Int'l Code: 2023-099Z
Perigee: 565.2 km
Apogee: 567.3 km
Inclination: 43.0 °
Period: 95.8 minutes
Semi major axis: 6937 km
RCS: Unknown
Launch date: July 16, 2023
Source: United States (US)
Launch site: AIR FORCE EASTERN TEST RANGE (AFETR)
Your satellite tracking list
Your tracking list is empty




NASA's NSSDC Master Catalog

Two Line Element Set (TLE):
1 57351U 23099Z   25181.34930217  .00000107  00000-0  23031-4 0  9991
2 57351  43.0023 179.6339 0001522 288.1820  71.8856 15.02534694108162
Source of the keplerian elements: AFSPC